Regional Weather Roundup
Issued by NWS

Home | Current Version | Previous Version | Graphics & Text | Print | Product List | Glossary On
Versions: 1 2 3 4 5 6 7 8 9 10 11 12 13 14 15 16 17 18 19 20 21 22 23 24 25 26 27 28 29 30 31 32 33 34 35 36 37 38 39 40 41 42 43 44 45 46 47 48 49 50
000
ASUS43 KMPX 211601
RWRMN
WEATHER ROUNDUP FOR MINNESOTA
NATIONAL WEATHER SERVICE TWIN CITIES/CHANHASSEN MN
1000 AM CST FRI NOV 21 2014


NOTE: "FAIR" INDICATES FEW OR NO CLOUDS BELOW 12,000 FEET WITH NO
SIGNIFICANT WEATHER AND/OR OBSTRUCTIONS TO VISIBILITY. N/A MEANS
CURRENT SKY AND/OR WEATHER CONDITIONS ARE NOT AVAILABLE.

MNZ060>063-068>070-211700-
   Twin Cities Metro

CITY           SKY/WX    TMP DP  RH WIND       PRES   REMARKS
TWIN CITIES    PTSUNNY   17   9  70 S12       30.18F WCI   4
ST PAUL        MOSUNNY   17  10  74 SE15      30.20F WCI   2
CRYSTAL        CLOUDY    18   9  68 S12       30.15F WCI   5
BLAINE         PTSUNNY   18  10  73 S13       30.15F WCI   4
LAKEVILLE      MOSUNNY   18  10  73 S12G17    30.17F WCI   5
EDEN PRAIRIE   MOSUNNY   21  12  68 S14       30.14F WCI   8
SOUTH ST PAUL  MOSUNNY   18   9  68 S9        30.19F WCI   6
LAKE ELMO      CLOUDY    18  10  73 S12       30.19F WCI   5
$$
MNZ001>005-007-008-013>017-022>024-027-028-211700-
   Northwest Minnesota

CITY           SKY/WX    TMP DP  RH WIND       PRES   REMARKS
BEMIDJI        MOSUNNY   17  10  74 S10       29.86F WCI   5
HALLOCK        MOSUNNY   18  12  79 S23       29.74F WCI   0
ROSEAU         MOSUNNY   21  16  79 S20G26    29.76F WCI   6
WARROAD        MOSUNNY   21  16  79 SW18G25   29.76F WCI   6
THIEF RVR FALL MOSUNNY   21  18  86 S20G25    29.79F WCI   6
CROOKSTON      MOSUNNY   19  16  86 S24G31    29.81F WCI   2
FOSSTON        MOSUNNY   19  14  79 S21       29.82F HAZE    WCI   3
DETROIT LAKES  MOSUNNY   23  18  80 S15       29.88F WCI  10
MOORHEAD       FAIR      23  18  80 S22G32    29.87F WCI   8
PARK RAPIDS    MOSUNNY   18  12  77 S13       29.91F WCI   5
MAHNOMEN       FAIR      20  15  79 S18       29.85F WCI   5
$$
MNZ006-009>011-018-025>026-211700-
   North Central Minnesota

CITY           SKY/WX    TMP DP  RH WIND       PRES   REMARKS
BAUDETTE       CLOUDY    20  12  71 S16       29.78F WCI   6
FLAG ISLAND    PTSUNNY   19  16  86 S21G26    29.74F HAZE    WCI   3
INTL FALLS     PTSUNNY   20  10  65 S10G21    29.84F WCI   9
WASKISH        SUNNY     21  14  73 S10G20    29.83F WCI  10
BIG FORK       PTSUNNY   19  12  73 S18G26    29.89F WCI   4
LONGVILLE      MOSUNNY   19  12  73 S12G22    29.95S WCI   7
GRAND RAPIDS   CLOUDY    16   9  73 S15       29.94S WCI   1
CRANE LAKE     CLOUDY    16   7  67 S13G20    29.92F WCI   2
ORR            CLOUDY    16   7  67 S14G22    29.88F WCI   1
COOK           CLOUDY    16   9  73 S13G20    29.93F WCI   2
WALKER         FAIR      17  10  75 S12G21    29.91F WCI   4
$$
MNZ012-019>021-037-211700-
   Northeast Minnesota

CITY           SKY/WX    TMP DP  RH WIND       PRES   REMARKS
DULUTH         PTSUNNY   13   3  64 S16G24    30.03F WCI  -3
ELY            CLOUDY    14   3  62 S13G24    29.96F WCI   0
HIBBING        CLOUDY    14   5  67 S9        29.98F WCI   2
EVELETH        MOSUNNY   16   7  67 S13       29.99F WCI   2
DULUTH HARBOR  MOSUNNY   14   7  73 CALM      30.13F
TWO HARBORS    MOSUNNY   18   9  68 SW8       30.07F WCI   7
SILVER BAY     MOSUNNY   16   9  73 SW8       30.07F WCI   5
GRAND MARAIS     N/A     25  18  74 SW25      30.10F WCI   9
G MARAIS ARPRT CLOUDY    16  10  79 S14       30.00F WCI   1
$$
MNZ029>031-032-039>041-046>048-054>057-064-211700-
   West Central Minnesota

CITY           SKY/WX    TMP DP  RH WIND       PRES   REMARKS
FERGUS FALLS   SUNNY     19  12  73 S21G29    29.95F WCI   3
WHEATON        SUNNY     19  16  86 SE13      29.94F WCI   7
MORRIS         MOSUNNY   19  14  79 S18       29.95F WCI   4
ALEXANDRIA     MOSUNNY   20  14  77 S18G29    29.97S WCI   5
ELBOW LAKE       N/A     19  14  81 S21G26    29.93F WCI   2
WADENA         SUNNY     19  14  79 S16       29.94S WCI   5
GLENWOOD       PTSUNNY   19  16  86 S23G30    29.99S WCI   2
APPLETON       MOSUNNY   25  18  74 S14       29.97F WCI  13
BENSON         PTSUNNY   19  14  79 S15       29.99  WCI   5
ORTONVILLE     SUNNY     23  16  74 S16       29.94S WCI  10
MADISON        SUNNY     28  21  74 S20       29.96F WCI  15
WILLMAR        FAIR      21  14  73 S9G16     30.03F WCI  11
$$
MNZ033>034-036-042>043-049>051-058-059-211700-
   Central Minnesota

CITY           SKY/WX    TMP DP  RH WIND       PRES   REMARKS
ST CLOUD       MOSUNNY   18  10  71 S14       30.07F WCI   4
SAUK CENTRE    FAIR      20  14  77 S14G25    30.01S WCI   7
PAYNESVILLE    PTSUNNY   17  12  80 SE21G26   30.03F WCI   0
AITKIN         MOSUNNY   19  10  68 S14G22    29.99F WCI   6
PINE RIVER     MOSUNNY   18  10  73 S13G18    30.00F WCI   4
BRAINERD       SUNNY     17  11  77 S17G29    30.00F WCI   1
STAPLES        SUNNY     18  12  79 S14G22    29.97S WCI   4
LONG PRAIRIE   FAIR      19  14  79 SE17      30.00S WCI   4
LITTLE FALLS   SUNNY     18  10  73 S13G18    30.04S WCI   4
LITCHFIELD     PTSUNNY   19  14  79 SE7G16    30.07S WCI  10
BUFFALO        CLOUDY    19  11  71 S13G20    30.12F WCI   6
MAPLE LAKE     PTSUNNY   19  13  77 SE10G18   30.10F WCI   8
$$
MNZ037-044-045-052-053-211700-
   East Central Minnesota

CITY           SKY/WX    TMP DP  RH WIND       PRES   REMARKS
PRINCETON      PTSUNNY   16  10  79 SE9       30.09F WCI   4
MORA             N/A    N/A N/A N/A MISG        N/A
CAMBRIDGE      MOSUNNY   18   9  68 S12       30.10F WCI   5
RUSH CITY      MOSUNNY   13   9  82 S10       30.14F WCI   0
MOOSE LAKE     PTSUNNY   14   7  73 S14G20    30.06F WCI  -1
HINCKLEY       FAIR      12   9  85 S12       30.12F WCI  -2
CLOQUET        SUNNY     14   7  73 S9        30.05F WCI   2
MCGREGOR       PTSUNNY   18  12  79 S17       30.02F WCI   2
$$
MNZ071>073-080-081-089-090-097-098-211700-
   Southwest Minnesota

CITY           SKY/WX    TMP DP  RH WIND       PRES   REMARKS
MONTEVIDEO     MOSUNNY   25  18  74 SW16G22   30.00F WCI  12
GRANITE FALLS  MOSUNNY   22  16  78 SE18G24   30.03F WCI   8
CANBY          MOSUNNY   26  19  73 SW18G36   29.96S WCI  13
MARSHALL       MOSUNNY   27  18  69 S30G40    29.99F WCI  10
REDWOOD FALLS  SUNNY     21  14  74 S18       30.06F WCI   6
OLIVIA         MOSUNNY   23  16  74 S17G24    30.04F WCI   9
PIPESTONE      MOSUNNY   21  18  86 S29       29.99F WCI   3
WINDOM         SUNNY     23  18  80 S16G25    30.08F WCI  10
WORTHINGTON    SUNNY     25  18  74 S23G32    30.08S WCI  10
JACKSON        SUNNY     23  14  68 S20G29    30.11F WCI   8
TRACY          SUNNY     29  19  68 S25G35    30.00F WCI  14
SLAYTON        MOSUNNY   23  18  79 S29       30.03F HAZE    WCI   6
$$
MNZ065>067-074>077-082>085-091>093-211700-
   South Central Minnesota

CITY           SKY/WX    TMP DP  RH WIND       PRES   REMARKS
MANKATO        PTSUNNY   19   9  63 S17       30.15F WCI   4
NEW ULM        MOSUNNY   18  12  79 S20       30.11F WCI   1
ST JAMES       SUNNY     19  12  73 S20       30.14F WCI   4
FAIRMONT       SUNNY     18  10  73 S23       30.14F WCI   0
GLENCOE        PTSUNNY   20  14  76 S10G23    30.11F WCI   9
FARIBAULT      MOSUNNY   18  10  73 S15G21    30.19S WCI   3
OWATONNA       MOSUNNY   18   9  68 S18G25    30.17F WCI   2
WASECA         MOSUNNY   21  10  63 S17       30.20S WCI   7
ALBERT LEA     MOSUNNY   19  10  68 S14G22    30.19F WCI   6
$$
MNZ078>079-086>088-094>096-211700-
   Southeast Minnesota

CITY           SKY/WX    TMP DP  RH WIND       PRES   REMARKS
ROCHESTER      MOSUNNY   15   7  70 S20       30.22F WCI  -2
RED WING         N/A     18   9  68 SE7       30.23F WCI   8
STANTON        MOSUNNY   20  11  68 S13       30.18F WCI   8
DODGE CENTER   MOSUNNY   16   9  73 S22       30.19S WCI  -2
WINONA         MOSUNNY   19  10  68 S8        30.30F WCI   9
AUSTIN         MOSUNNY   16   9  73 S10G17    30.21F WCI   3
PRESTON        MOSUNNY   15   7  71 S15       30.24F WCI  -1
$$
ABBREVIATIONS USED IN REMARKS
   TC - TEMPERATURES IN CELSIUS
  WCI - WIND CHILL INDEX
   HX - HEAT INDEX
  VSB - VISIBILITY
$$


USA.gov is the U.S. government's official web portal to all federal, state and local government web resources and services.